Regional Weather Roundup
Issued by NWS Albany, NY

Home | Current Version | Previous Version | Text Only | Print | Product List | Glossary On
Versions: 1 2 3 4 5 6 7 8 9 10 11 12 13 14 15 16 17 18 19 20 21 22 23 24 25 26 27 28
000
ASUS41 KALY 230110
RWRALY

NEW YORK STATE HOURLY WEATHER ROUNDUP
NATIONAL WEATHER SERVICE ALBANY NY
900 PM EDT SAT JUL 22 2017

NOTE: "FAIR" INDICATES FEW OR NO CLOUDS BELOW 12,000 FEET WITH NO
SIGNIFICANT WEATHER AND/OR NO OBSTRUCTIONS TO VISIBILITY.

NYZ032-033-038>043-046>054-057>066-NYZ062>081-082-084-230200-
EAST


CITY           SKY/WX    TMP DP  RH WIND       PRES   REMARKS
ALBANY         CLOUDY    72  65  78 NW3       29.79F
GLENS FALLS    CLOUDY    69  63  81 N6        29.79S
POUGHKEEPSIE   CLOUDY    74  65  73 CALM      29.76F
NEWBURGH       MOCLDY    77  63  61 E8        29.80S
MONTGOMERY     CLOUDY    75  67  76 NE6       29.78S
WHITE PLAINS   LGT RAIN  75  66  73 E3        29.79R
ISLIP          CLOUDY    79  70  74 SE6       29.78R
NEW YORK CITY  CLOUDY    82  67  60 S8        29.77R
CENTRAL PARK   CLOUDY    80  66  62 VRB5      29.80S
$$

NYZ005>009-017-018-044>046-055-056-230200-
CENTRAL


CITY           SKY/WX    TMP DP  RH WIND       PRES   REMARKS
FULTON         PTCLDY    68  66  93 CALM      29.80S
SYRACUSE       CLOUDY    70  65  84 CALM      29.80R
ROME           CLOUDY    70  66  87 CALM      29.81S
ELMIRA         CLOUDY    75  68  78 NE5       29.79S
BINGHAMTON     CLOUDY    69  63  81 E5        29.83S
$$

NYZ026>034-041>043-087-230200-
NORTH


CITY           SKY/WX    TMP DP  RH WIND       PRES   REMARKS
WATERTOWN      CLOUDY    69  67  93 CALM      29.81R
FORT DRUM      NOT AVBL
OGDENSBURG     FAIR      69  64  85 CALM      29.82R
MASSENA        PTCLDY    68  63  84 N3        29.83R
SARANAC LAKE   MOCLDY    63  59  87 CALM      29.85S
PLATTSBURGH    CLOUDY    67  61  81 SW3       29.81S
$$

NYZ001>004-010>016-019>021-085-230200-
WEST


CITY           SKY/WX    TMP DP  RH WIND       PRES   REMARKS
NIAGARA FALLS  CLOUDY    73  64  73 NE6       29.80R
BUFFALO        CLOUDY    73  65  75 E7        29.80S
DUNKIRK        CLOUDY    72  67  84 NE3       29.79R
JAMESTOWN      CLOUDY    66  63  88 SW6       29.84S
WELLSVILLE     CLOUDY    71  65  81 NE6       29.87R
ROCHESTER      CLOUDY    74  66  76 E6        29.81R
PENN YAN       MOCLDY    71  64  78 CALM      29.82R
$$

             KEY
       WCI = WIND CHILL INDEX
       VSB = VISIBILITY
       HX  = HEAT INDEX
$$




USA.gov is the U.S. government's official web portal to all federal, state and local government web resources and services.